Date,Installs,Update checks
2021-11-27,1,0
2021-11-28,6,3
2021-11-29,3,3
2021-11-30,4,2
2021-12-01,4,5
2021-12-02,4,4
2021-12-03,0,5
2021-12-04,3,4
2021-12-05,4,8
2021-12-06,3,7
2021-12-07,2,8
2021-12-08,0,9
2021-12-09,5,8
2021-12-10,1,10
2021-12-11,1,6
2021-12-12,5,7
2021-12-13,4,11
2021-12-14,3,10
2021-12-15,3,13
2021-12-16,5,13
2021-12-17,3,12
2021-12-18,4,11
2021-12-19,2,11
2021-12-20,1,15
2021-12-21,2,12
2021-12-22,1,17
2021-12-23,3,13
2021-12-24,4,15
2021-12-25,1,15
2021-12-26,3,19
2021-12-27,2,22
2021-12-28,7,15
2021-12-29,2,17
2021-12-30,2,14
2021-12-31,1,18
2022-01-01,3,18
2022-01-02,2,19
2022-01-03,3,23
2022-01-04,0,20
2022-01-05,8,25
2022-01-06,3,27
2022-01-07,2,28
2022-01-08,0,21
2022-01-09,1,1
2022-01-10,4,0
2022-01-11,2,33
2022-01-12,4,23
2022-01-13,7,29
2022-01-14,6,30
2022-01-15,2,34
2022-01-16,0,37
2022-01-17,4,33
2022-01-18,1,29
2022-01-19,0,33
2022-01-20,3,27
2022-01-21,4,39
2022-01-22,3,24
2022-01-23,0,38
2022-01-24,2,36
2022-01-25,1,35
2022-01-26,10,36
2022-01-27,9,36
2022-01-28,9,35
2022-01-29,0,42
2022-01-30,7,39
2022-01-31,3,38
2022-02-01,3,42
2022-02-02,10,42
2022-02-03,5,40
2022-02-04,2,38
2022-02-05,6,38
2022-02-06,8,40
2022-02-07,7,41
2022-02-08,6,40
2022-02-09,9,40
2022-02-10,8,43
2022-02-11,4,40
2022-02-12,7,47
2022-02-13,11,42
2022-02-14,4,48
2022-02-15,9,47
2022-02-16,4,54
2022-02-17,7,49
2022-02-18,5,38
2022-02-19,13,47
2022-02-20,3,48
2022-02-21,4,40
2022-02-22,7,57
2022-02-23,7,46
2022-02-24,8,53
2022-02-25,4,49
2022-02-26,2,48
2022-02-27,5,46
2022-02-28,2,45
2022-03-01,8,56
2022-03-02,5,47
2022-03-03,5,58
2022-03-04,2,61
2022-03-05,8,50
2022-03-06,6,54
2022-03-07,2,61
2022-03-08,3,54
2022-03-09,0,52
2022-03-10,7,49
2022-03-11,3,57
2022-03-12,13,58
2022-03-13,1,49
2022-03-14,7,60
2022-03-15,3,63
2022-03-16,11,62
2022-03-17,4,56
2022-03-18,3,71
2022-03-19,4,59
2022-03-20,5,54
2022-03-21,2,65
2022-03-22,4,62
2022-03-23,6,70
2022-03-24,6,64
2022-03-25,9,65
2022-03-26,6,63
2022-03-27,6,55
2022-03-28,9,65
2022-03-29,6,62
2022-03-30,7,62
2022-03-31,4,67
2022-04-01,7,48
2022-04-02,11,55
2022-04-03,4,52
2022-04-04,1,59
2022-04-05,3,55
2022-04-06,2,69
2022-04-07,4,62
2022-04-08,3,56
2022-04-09,5,55
2022-04-10,1,62
2022-04-11,2,71
2022-04-12,3,74
2022-04-13,8,69
2022-04-14,5,62
2022-04-15,8,73
2022-04-16,5,58
2022-04-17,1,54
2022-04-18,0,57
2022-04-19,6,76
2022-04-20,4,75
2022-04-21,7,69
2022-04-22,3,63
2022-04-23,3,63
2022-04-24,6,53
2022-04-25,5,70
2022-04-26,3,70
2022-04-27,5,69
2022-04-28,4,78
2022-04-29,3,77
2022-04-30,8,61
2022-05-01,4,52
2022-05-02,3,62
2022-05-03,4,73
2022-05-04,5,65
2022-05-05,9,72
2022-05-06,3,75
2022-05-07,4,51
2022-05-08,2,60
2022-05-09,5,68
2022-05-10,6,71
2022-05-11,1,68
2022-05-12,5,76
2022-05-13,2,73
2022-05-14,4,72
2022-05-15,1,77
2022-05-16,7,78
2022-05-17,6,84
2022-05-18,5,85
2022-05-19,4,83
2022-05-20,5,77
2022-05-21,5,74
2022-05-22,3,72
2022-05-23,11,78
2022-05-24,5,80
2022-05-25,3,86
2022-05-26,8,90
2022-05-27,4,100
2022-05-28,3,83
2022-05-29,4,79
2022-05-30,7,92
2022-05-31,4,88
2022-06-01,2,101
2022-06-02,6,97
2022-06-03,4,91
2022-06-04,2,82
2022-06-05,5,85
2022-06-06,2,83
2022-06-07,3,85
2022-06-08,3,95
2022-06-09,3,99
2022-06-10,7,82
2022-06-11,5,83
2022-06-12,3,81
2022-06-13,4,92
2022-06-14,2,94
2022-06-15,4,102
2022-06-16,1,95
2022-06-17,4,97
2022-06-18,5,83
2022-06-19,4,87
2022-06-20,1,96
2022-06-21,2,93
2022-06-22,4,113
2022-06-23,7,95
2022-06-24,6,103
2022-06-25,6,92
2022-06-26,1,100
2022-06-27,2,92
2022-06-28,4,106
2022-06-29,0,110
2022-06-30,0,109
2022-07-01,1,103
2022-07-02,4,95
2022-07-03,5,93
2022-07-04,3,100
2022-07-05,1,98
2022-07-06,1,96
2022-07-07,2,95
2022-07-08,2,99
2022-07-09,2,76
2022-07-10,4,80
2022-07-11,6,103
2022-07-12,3,103
2022-07-13,4,89
2022-07-14,1,95
2022-07-15,1,87
2022-07-16,2,84
2022-07-17,1,93
2022-07-18,6,93
2022-07-19,1,109
2022-07-20,7,101
2022-07-21,3,97
2022-07-22,4,92
2022-07-23,2,93
2022-07-24,2,84
2022-07-25,0,94
2022-07-26,0,98
2022-07-27,1,101
2022-07-28,3,103
2022-07-29,3,93
2022-07-30,4,81
2022-07-31,1,83
2022-08-01,1,98
2022-08-02,4,94
2022-08-03,3,105
2022-08-04,3,93
2022-08-05,5,97
2022-08-06,5,99
2022-08-07,0,90
2022-08-08,1,113
2022-08-09,1,102
2022-08-10,14,102
2022-08-11,2,103
2022-08-12,5,93
2022-08-13,3,93
2022-08-14,3,95
2022-08-15,1,98
2022-08-16,4,103
2022-08-17,1,108
2022-08-18,2,99
2022-08-19,5,106
2022-08-20,6,92
2022-08-21,8,94
2022-08-22,2,103
2022-08-23,1,113
2022-08-24,2,87
2022-08-25,1,109
2022-08-26,2,104
2022-08-27,6,100
2022-08-28,1,94
2022-08-29,3,106
2022-08-30,6,112
2022-08-31,5,113
2022-09-01,2,125
2022-09-02,2,110
2022-09-03,4,102
2022-09-04,3,100
2022-09-05,4,116
2022-09-06,3,109
2022-09-07,1,109
2022-09-08,0,111
2022-09-09,1,102
2022-09-10,7,88
2022-09-11,1,97
2022-09-12,1,103
2022-09-13,2,99
2022-09-14,4,118
2022-09-15,3,98
2022-09-16,1,105
2022-09-17,1,98
2022-09-18,0,96
2022-09-19,4,107
2022-09-20,1,105
2022-09-21,4,113
2022-09-22,4,107
2022-09-23,0,105
2022-09-24,4,99
2022-09-25,2,89
2022-09-26,1,95
2022-09-27,4,104
2022-09-28,2,110
2022-09-29,5,103
2022-09-30,3,102
2022-10-01,5,92
2022-10-02,1,87
2022-10-03,3,95
2022-10-04,4,98
2022-10-05,10,110
2022-10-06,12,98
2022-10-07,5,98
2022-10-08,5,98
2022-10-09,6,102
2022-10-10,3,105
2022-10-11,6,105
2022-10-12,5,109
2022-10-13,8,116
2022-10-14,6,112
2022-10-15,5,98
2022-10-16,8,104
2022-10-17,3,115
2022-10-18,4,115
2022-10-19,15,130
2022-10-20,10,114
2022-10-21,7,117
2022-10-22,10,112
2022-10-23,2,104
2022-10-24,4,121
2022-10-25,4,122
2022-10-26,5,120
2022-10-27,1,111
2022-10-28,4,117
2022-10-29,3,99
2022-10-30,5,100
2022-10-31,2,115
2022-11-01,2,102
2022-11-02,4,116
2022-11-03,8,107
2022-11-04,3,122
2022-11-05,4,108
2022-11-06,6,101
2022-11-07,5,104
2022-11-08,1,116
2022-11-09,2,97
2022-11-10,5,98
2022-11-11,6,104
2022-11-12,5,111
2022-11-13,2,96
2022-11-14,1,113
2022-11-15,1,101
2022-11-16,1,118
2022-11-17,0,87
2022-11-18,0,94
2022-11-19,2,81
2022-11-20,4,85
2022-11-21,4,103
2022-11-22,3,99
2022-11-23,4,95
2022-11-24,3,109
2022-11-25,0,96
2022-11-26,1,89
2022-11-27,0,100
2022-11-28,1,99
2022-11-29,1,104
2022-11-30,5,113
2022-12-01,5,102
2022-12-02,4,98
2022-12-03,8,101
2022-12-04,0,84
2022-12-05,1,95
2022-12-06,4,93
2022-12-07,3,98
2022-12-08,4,104
2022-12-09,6,103
2022-12-10,6,92
2022-12-11,7,91
2022-12-12,7,104
2022-12-13,4,106
2022-12-14,1,102
2022-12-15,3,110
2022-12-16,2,96
2022-12-17,7,79
2022-12-18,8,102
2022-12-19,3,104
2022-12-20,3,100
2022-12-21,6,98
2022-12-22,1,93
2022-12-23,4,96
2022-12-24,7,83
2022-12-25,1,100
2022-12-26,3,89
2022-12-27,1,102
2022-12-28,1,110
2022-12-29,2,90
2022-12-30,1,101
2022-12-31,3,73
2023-01-01,4,100
2023-01-02,5,98
2023-01-03,3,123
2023-01-04,3,125
2023-01-05,4,119
2023-01-06,4,121
2023-01-07,4,118
2023-01-08,3,112
2023-01-09,6,124
2023-01-10,3,117
2023-01-11,2,120
2023-01-12,1,121
2023-01-13,2,111
2023-01-14,0,114
2023-01-15,4,117
2023-01-16,7,124
2023-01-17,2,123
2023-01-18,2,114
2023-01-19,5,117
2023-01-20,1,110
2023-01-21,1,108
2023-01-22,5,113
2023-01-23,4,114
2023-01-24,4,112
2023-01-25,4,123
2023-01-26,2,115
2023-01-27,5,120
2023-01-28,2,116
2023-01-29,7,114
2023-01-30,4,124
2023-01-31,3,119
2023-02-01,6,119
2023-02-02,5,126
2023-02-03,3,119
2023-02-04,4,109
2023-02-05,4,116
2023-02-06,7,122
2023-02-07,1,125
2023-02-08,2,127
2023-02-09,4,127
2023-02-10,5,123
2023-02-11,5,107
2023-02-12,5,122
2023-02-13,3,128
2023-02-14,1,118
2023-02-15,3,122
2023-02-16,2,118
2023-02-17,3,111
2023-02-18,4,110
2023-02-19,0,116
2023-02-20,2,130
2023-02-21,4,108
2023-02-22,4,116
2023-02-23,4,124
2023-02-24,2,126
2023-02-25,2,105
2023-02-26,3,112
2023-02-27,4,135
2023-02-28,4,123
2023-03-01,4,129
2023-03-02,5,120
2023-03-03,2,117
2023-03-04,1,116
2023-03-05,3,99
2023-03-06,2,127
2023-03-07,1,125
2023-03-08,2,117
2023-03-09,4,121
2023-03-10,3,114
2023-03-11,5,111
2023-03-12,4,107
2023-03-13,3,115
2023-03-14,4,128
2023-03-15,4,117
2023-03-16,1,123
2023-03-17,1,119
2023-03-18,2,102
2023-03-19,0,113
2023-03-20,2,109
2023-03-21,3,124
2023-03-22,11,121
2023-03-23,7,105
2023-03-24,4,124
2023-03-25,4,120
2023-03-26,9,105
2023-03-27,1,126
2023-03-28,9,125
2023-03-29,7,115
2023-03-30,4,119
2023-03-31,5,127
2023-04-01,7,113
2023-04-02,4,114
2023-04-03,0,122
2023-04-04,3,122
2023-04-05,7,129
2023-04-06,3,128
2023-04-07,2,135
2023-04-08,1,121
2023-04-09,6,115
2023-04-10,6,116
2023-04-11,4,131
2023-04-12,1,132
2023-04-13,1,128
2023-04-14,2,127
2023-04-15,4,108
2023-04-16,3,119
2023-04-17,4,123
2023-04-18,2,124
2023-04-19,5,130
2023-04-20,1,120
2023-04-21,4,125
2023-04-22,3,104
2023-04-23,7,119
2023-04-24,6,136
2023-04-25,5,122
2023-04-26,1,128
2023-04-27,3,126
2023-04-28,5,117
2023-04-29,4,120
2023-04-30,3,104
2023-05-01,1,113
2023-05-02,3,111
2023-05-03,6,111
2023-05-04,1,117
2023-05-05,1,108
2023-05-06,3,119
2023-05-07,7,108
2023-05-08,6,119
2023-05-09,1,118
2023-05-10,3,121
2023-05-11,3,119
2023-05-12,1,120
2023-05-13,4,108
2023-05-14,0,117
2023-05-15,3,122
2023-05-16,3,116
2023-05-17,2,126
2023-05-18,3,126
2023-05-19,2,122
2023-05-20,4,117
2023-05-21,7,116
2023-05-22,7,138
2023-05-23,7,124
2023-05-24,5,126
2023-05-25,8,119
2023-05-26,7,123
2023-05-27,6,113
2023-05-28,5,109
2023-05-29,4,125
2023-05-30,7,118
2023-05-31,4,128
2023-06-01,2,123
2023-06-02,4,133
2023-06-03,8,111
2023-06-04,4,106
2023-06-05,5,129
2023-06-06,2,127
2023-06-07,5,139
2023-06-08,10,107
2023-06-09,2,123
2023-06-10,6,121
2023-06-11,3,117
2023-06-12,6,124
2023-06-13,4,134
2023-06-14,7,129
2023-06-15,6,134
2023-06-16,4,115
2023-06-17,9,119
2023-06-18,4,115
2023-06-19,5,131
2023-06-20,5,119
2023-06-21,3,128
2023-06-22,5,103
2023-06-23,6,111
2023-06-24,6,99
2023-06-25,5,111
2023-06-26,6,120
2023-06-27,2,111
2023-06-28,4,113
2023-06-29,5,128
2023-06-30,4,132
2023-07-01,6,116
2023-07-02,9,109
2023-07-03,6,137
2023-07-04,3,123
2023-07-05,5,113
2023-07-06,5,112
2023-07-07,4,109
2023-07-08,4,135
2023-07-09,3,106
2023-07-10,3,107
2023-07-11,1,134
2023-07-12,4,120
2023-07-13,5,127
2023-07-14,1,130
2023-07-15,7,108
2023-07-16,4,108
2023-07-17,2,110
2023-07-18,1,111
2023-07-19,6,119
2023-07-20,8,122
2023-07-21,9,119
2023-07-22,9,111
2023-07-23,4,114
2023-07-24,4,118
2023-07-25,1,116
2023-07-26,3,137
2023-07-27,3,123
2023-07-28,3,122
2023-07-29,4,109
2023-07-30,4,107
2023-07-31,2,128
2023-08-01,4,119
2023-08-02,6,115
2023-08-03,10,119
2023-08-04,5,105
2023-08-05,8,117
2023-08-06,2,117
2023-08-07,3,135
2023-08-08,1,125
2023-08-09,4,137
2023-08-10,4,126
2023-08-11,1,138
2023-08-12,3,114
2023-08-13,4,128
2023-08-14,5,118
2023-08-15,5,132
2023-08-16,3,125
2023-08-17,4,114
2023-08-18,3,121
2023-08-19,5,121
2023-08-20,4,106
2023-08-21,8,123
2023-08-22,6,120
2023-08-23,2,127
2023-08-24,4,120
2023-08-25,3,125
2023-08-26,3,111
2023-08-27,0,126
2023-08-28,3,115
2023-08-29,3,125
2023-08-30,2,131
2023-08-31,4,128
2023-09-01,6,137
2023-09-02,2,123
2023-09-03,4,93
2023-09-04,3,119
2023-09-05,5,105
2023-09-06,2,105
2023-09-07,5,101
2023-09-08,3,106
2023-09-09,3,113
2023-09-10,2,98
2023-09-11,6,126
2023-09-12,2,126
2023-09-13,4,130
2023-09-14,4,131
2023-09-15,2,118
2023-09-16,0,118
2023-09-17,4,113
2023-09-18,1,138
2023-09-19,7,134
2023-09-20,5,123
2023-09-21,3,113
2023-09-22,5,123
2023-09-23,4,127
2023-09-24,0,112
2023-09-25,4,120
2023-09-26,2,121
2023-09-27,4,122
2023-09-28,1,127
2023-09-29,4,128
2023-09-30,6,119
2023-10-01,3,114
2023-10-02,2,132
2023-10-03,4,128
2023-10-04,6,127
2023-10-05,2,141
2023-10-06,0,122
2023-10-07,3,123
2023-10-08,3,120
2023-10-09,0,133
2023-10-10,0,135
2023-10-11,2,125
2023-10-12,2,115
2023-10-13,4,136
2023-10-14,9,118
2023-10-15,1,128
2023-10-16,2,131
2023-10-17,1,125
2023-10-18,1,113
2023-10-19,0,130
2023-10-20,4,118
2023-10-21,4,122
2023-10-22,1,109
2023-10-23,0,133
2023-10-24,2,122
2023-10-25,3,114
2023-10-26,2,123
2023-10-27,4,121
2023-10-28,4,119
2023-10-29,1,111
2023-10-30,4,120
2023-10-31,1,106
2023-11-01,4,118
2023-11-02,2,112
2023-11-03,1,123
2023-11-04,1,131
2023-11-05,2,103
2023-11-06,4,127
2023-11-07,2,122
2023-11-08,5,125
2023-11-09,5,128
2023-11-10,6,112
2023-11-11,3,118
2023-11-12,3,99
2023-11-13,5,125
2023-11-14,2,120
2023-11-15,3,124
2023-11-16,3,124
2023-11-17,0,104
2023-11-18,5,117
2023-11-19,2,119
2023-11-20,6,121
2023-11-21,0,122
2023-11-22,3,121
2023-11-23,2,117
2023-11-24,3,113
2023-11-25,4,105
2023-11-26,4,115
2023-11-27,5,129
2023-11-28,6,128
2023-11-29,3,115
2023-11-30,5,127
2023-12-01,2,117
2023-12-02,5,122
2023-12-03,4,108
2023-12-04,3,124
2023-12-05,3,107
2023-12-06,2,106
2023-12-07,3,95
2023-12-08,3,105
2023-12-09,3,94
2023-12-10,3,93
2023-12-11,2,91
2023-12-12,3,87
2023-12-13,3,95
2023-12-14,7,105
2023-12-15,3,98
2023-12-16,1,100
2023-12-17,5,96
2023-12-18,2,103
2023-12-19,0,93
2023-12-20,0,98
2023-12-21,1,104
2023-12-22,4,95
2023-12-23,3,88
2023-12-24,6,75
2023-12-25,6,93
2023-12-26,2,93
2023-12-27,3,89
2023-12-28,4,99
2023-12-29,2,84
2023-12-30,1,94
2023-12-31,0,86
2024-01-01,3,93
2024-01-02,1,91
2024-01-03,1,112
2024-01-04,0,108
2024-01-05,1,97
2024-01-06,1,101
2024-01-07,1,89
2024-01-08,1,117
2024-01-09,1,103
2024-01-10,2,108
2024-01-11,5,99
2024-01-12,3,107
2024-01-13,3,111
2024-01-14,1,107
2024-01-15,4,121
2024-01-16,4,122
2024-01-17,3,108
2024-01-18,5,102
2024-01-19,5,108
2024-01-20,5,97
2024-01-21,2,110
2024-01-22,0,107
2024-01-23,8,105
2024-01-24,6,116
2024-01-25,4,109
2024-01-26,4,119
2024-01-27,4,109
2024-01-28,6,119
2024-01-29,1,134
2024-01-30,2,118
2024-01-31,3,130
2024-02-01,4,104
2024-02-02,2,116
2024-02-03,5,116
2024-02-04,4,109
2024-02-05,2,117
2024-02-06,4,113
2024-02-07,3,107
2024-02-08,1,114
2024-02-09,1,100
2024-02-10,3,100
2024-02-11,2,113
2024-02-12,4,116
2024-02-13,3,113
2024-02-14,4,120
2024-02-15,1,112
2024-02-16,2,114
2024-02-17,5,117
2024-02-18,4,105
2024-02-19,2,123
2024-02-20,3,116
2024-02-21,3,119
2024-02-22,4,106
2024-02-23,0,118
2024-02-24,1,108
2024-02-25,2,115
2024-02-26,1,111
2024-02-27,2,105
2024-02-28,2,112
2024-02-29,3,107
2024-03-01,1,117
2024-03-02,5,107
2024-03-03,2,114
2024-03-04,5,124
2024-03-05,3,111
2024-03-06,2,116
2024-03-07,0,104
2024-03-08,5,96
2024-03-09,2,110
2024-03-10,6,98
2024-03-11,2,114
2024-03-12,1,114
2024-03-13,1,117
2024-03-14,2,110
2024-03-15,2,101
2024-03-16,0,98
2024-03-17,1,107
2024-03-18,1,110
2024-03-19,3,114
2024-03-20,4,120
2024-03-21,4,109
2024-03-22,5,107
2024-03-23,1,104
2024-03-24,3,110
2024-03-25,1,125
2024-03-26,1,115
2024-03-27,3,123
2024-03-28,4,102
2024-03-29,0,107
2024-03-30,1,111
2024-03-31,3,91
2024-04-01,2,111
2024-04-02,5,112
2024-04-03,5,117
2024-04-04,2,112
2024-04-05,0,114
2024-04-06,1,108
2024-04-07,2,108
2024-04-08,0,121
2024-04-09,0,112
2024-04-10,0,100
2024-04-11,1,117
2024-04-12,2,107
2024-04-13,0,102
2024-04-14,0,100
2024-04-15,0,114
2024-04-16,1,111
2024-04-17,2,102
2024-04-18,1,122
2024-04-19,6,103
2024-04-20,2,117
2024-04-21,1,99
2024-04-22,1,104
2024-04-23,1,110
2024-04-24,3,97
2024-04-25,3,94
2024-04-26,1,108
2024-04-27,3,105
2024-04-28,5,101
2024-04-29,4,99
2024-04-30,3,97
2024-05-01,2,113
2024-05-02,2,113
2024-05-03,2,104
2024-05-04,0,110
2024-05-05,0,103
2024-05-06,0,100
2024-05-07,0,112
2024-05-08,0,118
2024-05-09,0,103
2024-05-10,4,108
2024-05-11,7,99
2024-05-12,1,101
2024-05-13,1,117
2024-05-14,1,118
2024-05-15,0,101
2024-05-16,0,105
2024-05-17,1,106
2024-05-18,1,103
2024-05-19,2,100
2024-05-20,1,112
2024-05-21,5,102
2024-05-22,1,113
2024-05-23,1,111
2024-05-24,4,109
2024-05-25,3,92
2024-05-26,3,95
2024-05-27,0,109
2024-05-28,0,93
2024-05-29,0,98
2024-05-30,0,90
2024-05-31,2,88
2024-06-01,0,100
2024-06-02,1,93
2024-06-03,1,100
2024-06-04,3,86
2024-06-05,1,102
2024-06-06,2,103
2024-06-07,2,96
2024-06-08,0,95
2024-06-09,0,103
2024-06-10,1,96
2024-06-11,3,100
2024-06-12,2,93
2024-06-13,1,99
2024-06-14,0,91
2024-06-15,1,78
2024-06-16,0,88
2024-06-17,0,107
2024-06-18,1,84
2024-06-19,0,51
